SCP
0 0 0 0 0 0 0 0 0 0 0 0 0 0 0 0 0 0 0 0 0 0 0 0 0 0 0 0 0 0 0 0 -0 -0 0 0 0 0
0 0 0 0 0 0 0 0 0 0 0 0 0 0 0 0 0 0 0 0 0 0 0 0 0 0 0 0 0 0 0 0 0 0 0 0 0 0
0 0 0 0 0 0 0 0 0 0 0 0 0 0 0 0 0 0 0 0 0 0 0 0 0 0 0 0 0 0 0 0 0 0 0 0 0 0
0 0 0 0 0 0 0 0 0 0 0 0 0 0 0 0 0 0 0 0 0 0 0 0 0 0 0 0 0 0 0 0 0 0 0 0 0 0
0 0 0 0 0 0 0 0 0 0 0 0 0 0 0 0 0 0 0 0 0 0 0 0 0 0 -0 -0 0 0 0 0 0 0 0 0 0 0
0 0 0 0 0 0 0 0 0 0 0 0 0 0 0 0 0 0 0 0 0 0 0 0 0 0 -0 -0 0 0 0 0 0 0 0 0 0 0
0 0 0 0 0 0 0 0 0 0 0 0 0 0 0 0 0 0 0 0 0 0 0 0 0 0 0 -0 0 0 0 0 0 0 0 0 0 0
0 0 0 0 0 0 0 0 0 0 0 0 0 0 0 0 0 0 0 0 0 0 0 0 0 0 0 -0 0 0 0 0 0 0 0 0 0 0
0 0 0 0 0 0 0 0 0 0 0 0 0 0 0 0 0 0 0 0 0 0 0 0 0 0 -0 0 0 0 0 0 0 0 0 0 0 0
0 0 0 0 0 0 0 0 0 0 0 0 0 0 0 0 0 0 0 0 0 -0 -0 0 0 0 0 0 0 0 0 0 0 0 0 0 0 0
0 0 0 0 0 0 0 0 0 0 0 0 0 0 0 0 0 0 0 0 0 0 -0 -0 -0 0 0 0 0 0 0 -0 0 0 0 0 0 0
0 0 0 0 0 0 0 0 0 0 0 0 0 0 0 -0 0 0 0 -0 0 0 -0 -0 0 0 0 0 -0 -0 -0 -0 0 0 0 -0 -0 0
0 0 0 0 0 0 0 0 0 0 0 0 0 0 -0 -0 -0 -0 -0 0 0 0 0 0 0 0 0 0 0 -0 -0 0 0 0 0 0 0 0
0 0 0 0 0 0 0 0 0 0 0 0 0 -0 -0 -0 -0 0 0 0 0 0 0 0 0 0 0 0 0 -0 0 0 0 0 0 0 0 -0
0 0 0 0 0 0 0 0 0 -0 0 0 0 -0 -0 0 0 0 0 0 0 0 0 0 0 0 0 0 0 0 0 0 0 0 0 0 0 0
0 0 0 0 0 0 0 0 0 -0 -0 -0 -0 0 0 0 0 0 0 0 0 0 0 0 0 0 0 0 0 0 0 0 0 0 0 0 0 0
0 0 0 0 0 0 0 0 0 0 0 0 0 0 0 0 0 0 0 0 0 0 0 0 0 0 0 0 0 0 0 0 0 0 0 0 0 0
0 0 0 0 0 -0 0 0 0 0 0 0 0 0 0 0 0 0 0 0 0 0 0 0 0 0 0 0 0 0 0 0 0 0 0 0 0 0
0 0 0 0 0 0 0 0 0 0 0 0 0 0 0 0 0 0 0 0 0 0 0 0 0 0 0 0 0 0 0 0 0 0 0 0 0 0
0 0 0 0 0 0 0 0 0 0 0 0 0 0 0 0 0 0 0 0 0 0 0 0 0 0 0 0 0 0 -0 0 0 0 0 0 0 0
0 0 0 0 0 0 0 0 0 0 0 0 0 0 0 0 0 0 0 0 0 0 0 0 0 0 0 0 0 0 0 -0 0 0 0 0 0 0
0 0 0 0 0 0 0 0 0 0 0 0 0 0 0 0 0 0 0 0 0 0 0 0 0 0 0 0 0 0 0 0 -0 -0 -0 -0 0 0
0 0 0 0 0 0 0 0 0 0 0 0 0 0 0 0 0 0 0 0 0 0 0 0 0 0 0 -0 -0 -0 0 0 0 0 -0 -0 -0 -0
Wind_Speed_500mb
21 25 29 27 28 39 41 44 51 59 59 60 59 62 52 53 48 56 57 51 46 45 44 40 43 48 47 49 44 41 44 49 55 52 51 57 53 54
30 32 33 32 37 40 43 50 51 60 55 62 63 57 51 50 50 53 60 58 47 45 43 41 42 47 46 47 47 44 42 44 45 43 45 44 45 58
29 32 32 36 40 44 50 50 53 64 64 60 58 56 53 58 57 66 53 55 42 38 40 45 47 48 47 51 47 43 45 47 45 43 42 44 46 50
27 28 34 36 43 52 53 58 62 62 61 60 62 65 63 61 67 49 47 42 37 35 38 43 49 49 47 50 47 40 40 40 40 39 38 41 41 44
28 31 37 44 51 52 62 61 58 59 58 62 71 62 63 71 61 41 42 37 37 41 40 45 40 35 30 31 32 35 40 40 37 36 37 40 40 41
39 47 50 53 58 59 58 56 59 59 60 62 55 60 69 66 36 37 44 34 41 39 38 34 29 24 28 27 31 30 28 29 33 33 32 33 36 36
48 52 52 52 55 51 50 54 59 60 64 66 66 61 53 36 28 35 42 36 37 37 33 22 25 20 19 31 23 17 19 23 26 28 24 25 27 31
48 47 49 51 56 59 62 65 67 49 40 42 47 38 45 43 38 32 41 32 36 39 40 24 12 11 19 20 12 16 18 18 20 19 22 22 23 27
50 53 56 60 67 66 56 56 53 47 44 41 41 32 31 35 35 34 21 31 32 39 30 18 9 13 18 15 16 13 16 19 26 22 24 27 30 34
57 60 63 60 50 44 40 41 40 35 29 24 25 27 30 32 33 33 31 27 35 32 18 18 16 20 14 3 15 10 17 23 29 19 19 18 20 23
63 58 49 39 34 34 38 39 39 34 28 29 29 30 30 27 25 28 21 24 31 15 10 10 18 23 9 2 23 20 24 31 28 16 17 22 19 13
49 42 40 33 37 38 34 37 40 38 32 26 23 13 13 6 5 8 10 14 14 10 4 17 16 23 17 9 21 20 31 31 15 13 6 12 21 18
38 37 33 36 40 38 32 32 31 31 26 24 16 15 11 6 8 9 14 22 10 11 8 19 20 30 28 26 21 19 31 10 8 12 23 26 28 31
35 33 33 33 31 35 30 27 28 25 19 14 16 13 10 6 0 10 17 10 9 7 7 19 31 31 25 17 6 17 18 13 14 21 26 25 24 22
33 32 30 28 27 30 29 28 19 16 17 18 13 16 18 15 9 10 9 3 4 12 19 20 18 6 5 5 5 8 20 21 22 30 28 29 29 26
36 32 29 25 24 25 26 26 17 13 16 14 15 19 23 21 21 18 17 19 16 17 17 15 9 5 13 8 4 7 5 19 41 42 39 43 44 43
33 33 32 30 28 27 25 21 19 10 12 12 14 18 19 20 22 24 20 21 24 25 27 26 21 23 31 33 42 42 47 53 56 58 55 56 51 47
37 37 36 34 32 28 29 26 26 17 11 12 14 18 20 24 29 23 27 29 24 27 32 42 49 56 59 62 57 54 52 52 52 56 55 58 53 45
40 38 35 33 31 29 29 28 26 23 13 10 23 21 25 29 26 31 28 31 34 30 35 39 50 53 52 58 56 53 50 46 43 48 48 51 51 42
42 39 38 36 35 34 33 29 29 31 37 35 28 20 25 30 25 28 28 27 30 32 39 44 41 46 52 53 56 38 35 38 39 42 39 37 43 38
41 41 40 38 35 34 41 41 38 33 33 34 28 22 23 21 26 31 27 30 35 35 38 37 32 37 41 46 55 47 44 33 27 19 21 32 42 43
39 40 41 39 37 36 34 33 31 30 25 27 24 25 21 24 30 34 36 38 37 32 30 32 30 27 29 49 55 48 44 41 37 50 54 41 35 44
44 39 39 40 38 39 42 43 38 31 31 34 33 33 40 40 40 31 33 35 35 40 43 43 44 43 47 50 55 57 50 49 50 56 58 50 50 48
Wind_Direction_500mb
303 287 283 286 284 286 296 302 302 299 297 299 296 308 310 311 309 310 310 310 294 286 285 281 292 295 296 298 286 276 272 271 273 271 270 266 254 244
294 288 285 287 291 297 297 297 301 303 297 301 301 302 302 297 302 310 306 307 295 288 281 278 280 289 292 294 292 278 271 266 266 264 262 255 252 245
300 296 291 295 293 299 299 295 301 304 296 299 298 300 295 296 303 313 295 302 295 288 284 281 284 285 291 290 285 277 271 269 263 265 259 259 256 250
308 296 298 301 301 301 298 296 292 297 295 295 297 298 294 297 314 306 297 295 294 299 300 296 289 286 289 291 278 268 270 269 261 262 260 262 260 254
317 309 300 297 287 286 283 285 289 287 288 288 290 287 292 303 311 298 300 294 294 292 304 306 293 294 292 296 280 269 266 263 262 261 258 259 260 256
303 297 295 291 292 293 295 293 292 293 292 285 283 292 300 306 289 304 306 294 295 304 309 306 305 291 295 292 292 282 276 259 261 263 263 266 253 249
307 306 303 304 306 306 302 297 297 297 295 294 293 293 285 297 299 300 300 295 302 314 309 301 289 285 294 293 310 297 290 288 269 264 262 249 250 247
314 308 304 304 304 304 301 298 299 306 306 303 301 291 289 283 295 297 295 293 296 319 316 327 285 295 318 313 292 302 294 301 282 276 257 252 251 249
314 311 310 310 309 305 306 306 304 301 297 297 282 272 275 277 281 284 293 290 292 312 310 330 337 331 318 302 334 313 329 331 324 281 262 256 253 256
314 315 317 317 315 318 326 329 331 328 319 315 306 299 290 288 279 277 265 288 300 311 305 317 338 340 324 223 8 334 325 316 319 293 275 268 263 262
319 320 323 326 334 330 329 328 332 328 321 319 310 297 289 293 283 263 252 266 299 313 317 323 328 349 348 167 5 349 328 323 321 308 269 244 243 224
330 333 348 350 340 336 330 330 331 335 336 329 332 335 305 286 62 192 226 291 297 326 342 330 333 350 344 358 352 343 338 333 341 358 106 134 127 126
347 352 351 349 350 347 341 339 337 335 331 337 354 2 7 317 292 275 275 289 269 286 318 321 318 333 333 337 357 338 334 2 63 71 106 107 119 117
348 346 342 340 347 353 351 347 348 343 352 27 41 49 50 43 270 265 274 251 252 293 295 298 304 311 311 319 14 341 354 73 113 115 108 109 105 98
351 346 343 348 353 1 358 355 352 4 43 57 45 18 5 341 358 35 83 111 8 330 321 314 309 36 324 294 116 15 76 92 118 115 112 111 110 108
359 360 0 3 4 4 5 7 12 15 33 46 25 12 6 73 57 77 61 37 64 64 58 35 38 114 116 123 150 140 170 114 113 112 114 110 106 105
1 5 9 13 12 12 14 25 17 29 56 47 27 16 74 67 80 60 66 66 88 89 69 74 61 90 102 105 103 109 113 112 111 110 113 108 99 96
15 15 17 18 17 21 25 47 41 45 44 36 27 61 75 73 65 79 62 105 80 81 88 95 95 93 94 91 90 94 96 100 103 103 104 103 95 87
25 24 24 25 30 35 39 39 41 37 42 71 81 74 84 70 75 58 85 101 78 94 91 103 101 91 85 84 83 75 80 83 86 88 91 89 86 81
29 33 40 43 42 45 42 42 50 70 82 70 70 94 79 70 64 66 87 74 96 106 89 102 95 95 95 92 83 80 70 70 70 70 70 78 82 80
39 45 46 49 46 50 65 58 58 70 76 66 64 97 83 70 64 91 80 94 100 110 98 82 105 102 99 96 87 80 72 66 63 76 72 69 79 76
52 51 53 51 62 63 63 70 62 59 72 64 70 94 83 70 95 103 94 97 96 91 98 105 108 117 104 88 81 73 70 71 81 82 77 78 88 81
51 55 57 59 59 58 56 48 46 57 68 80 79 79 87 91 97 90 113 89 95 100 98 100 103 100 96 89 78 77 82 83 85 85 80 77 77 80
Wind_Speed_850mb
21 25 29 27 28 39 41 44 51 59 59 60 59 62 52 53 48 56 57 51 46 45 44 40 43 48 47 49 44 41 44 49 55 52 51 57 53 54
30 32 33 32 37 40 43 50 51 60 55 62 63 57 51 50 50 53 60 58 47 45 43 41 42 47 46 47 47 44 42 44 45 43 45 44 45 58
29 32 32 36 40 44 50 50 53 64 64 60 58 56 53 58 57 66 53 55 42 38 40 45 47 48 47 51 47 43 45 47 45 43 42 44 46 50
27 28 34 36 43 52 53 58 62 62 61 60 62 65 63 61 67 49 47 42 37 35 38 43 49 49 47 50 47 40 40 40 40 39 38 41 41 44
28 31 37 44 51 52 62 61 58 59 58 62 71 62 63 71 61 41 42 37 37 41 40 45 40 35 30 31 32 35 40 40 37 36 37 40 40 41
39 47 50 53 58 59 58 56 59 59 60 62 55 60 69 66 36 37 44 34 41 39 38 34 29 24 28 27 31 30 28 29 33 33 32 33 36 36
48 52 52 52 55 51 50 54 59 60 64 66 66 61 53 36 28 35 42 36 37 37 33 22 25 20 19 31 23 17 19 23 26 28 24 25 27 31
48 47 49 51 56 59 62 65 67 49 40 42 47 38 45 43 38 32 41 32 36 39 40 24 12 11 19 20 12 16 18 18 20 19 22 22 23 27
50 53 56 60 67 66 56 56 53 47 44 41 41 32 31 35 35 34 21 31 32 39 30 18 9 13 18 15 16 13 16 19 26 22 24 27 30 34
57 60 63 60 50 44 40 41 40 35 29 24 25 27 30 32 33 33 31 27 35 32 18 18 16 20 14 3 15 10 17 23 29 19 19 18 20 23
63 58 49 39 34 34 38 39 39 34 28 29 29 30 30 27 25 28 21 24 31 15 10 10 18 23 9 2 23 20 24 31 28 16 17 22 19 13
49 42 40 33 37 38 34 37 40 38 32 26 23 13 13 6 5 8 10 14 14 10 4 17 16 23 17 9 21 20 31 31 15 13 6 12 21 18
38 37 33 36 40 38 32 32 31 31 26 24 16 15 11 6 8 9 14 22 10 11 8 19 20 30 28 26 21 19 31 10 8 12 23 26 28 31
35 33 33 33 31 35 30 27 28 25 19 14 16 13 10 6 0 10 17 10 9 7 7 19 31 31 25 17 6 17 18 13 14 21 26 25 24 22
33 32 30 28 27 30 29 28 19 16 17 18 13 16 18 15 9 10 9 3 4 12 19 20 18 6 5 5 5 8 20 21 22 30 28 29 29 26
36 32 29 25 24 25 26 26 17 13 16 14 15 19 23 21 21 18 17 19 16 17 17 15 9 5 13 8 4 7 5 19 41 42 39 43 44 43
33 33 32 30 28 27 25 21 19 10 12 12 14 18 19 20 22 24 20 21 24 25 27 26 21 23 31 33 42 42 47 53 56 58 55 56 51 47
37 37 36 34 32 28 29 26 26 17 11 12 14 18 20 24 29 23 27 29 24 27 32 42 49 56 59 62 57 54 52 52 52 56 55 58 53 45
40 38 35 33 31 29 29 28 26 23 13 10 23 21 25 29 26 31 28 31 34 30 35 39 50 53 52 58 56 53 50 46 43 48 48 51 51 42
42 39 38 36 35 34 33 29 29 31 37 35 28 20 25 30 25 28 28 27 30 32 39 44 41 46 52 53 56 38 35 38 39 42 39 37 43 38
41 41 40 38 35 34 41 41 38 33 33 34 28 22 23 21 26 31 27 30 35 35 38 37 32 37 41 46 55 47 44 33 27 19 21 32 42 43
39 40 41 39 37 36 34 33 31 30 25 27 24 25 21 24 30 34 36 38 37 32 30 32 30 27 29 49 55 48 44 41 37 50 54 41 35 44
44 39 39 40 38 39 42 43 38 31 31 34 33 33 40 40 40 31 33 35 35 40 43 43 44 43 47 50 55 57 50 49 50 56 58 50 50 48
Wind_Direction_850mb
303 287 283 286 284 286 296 302 302 299 297 299 296 308 310 311 309 310 310 310 294 286 285 281 292 295 296 298 286 276 272 271 273 271 270 266 254 244
294 288 285 287 291 297 297 297 301 303 297 301 301 302 302 297 302 310 306 307 295 288 281 278 280 289 292 294 292 278 271 266 266 264 262 255 252 245
300 296 291 295 293 299 299 295 301 304 296 299 298 300 295 296 303 313 295 302 295 288 284 281 284 285 291 290 285 277 271 269 263 265 259 259 256 250
308 296 298 301 301 301 298 296 292 297 295 295 297 298 294 297 314 306 297 295 294 299 300 296 289 286 289 291 278 268 270 269 261 262 260 262 260 254
317 309 300 297 287 286 283 285 289 287 288 288 290 287 292 303 311 298 300 294 294 292 304 306 293 294 292 296 280 269 266 263 262 261 258 259 260 256
303 297 295 291 292 293 295 293 292 293 292 285 283 292 300 306 289 304 306 294 295 304 309 306 305 291 295 292 292 282 276 259 261 263 263 266 253 249
307 306 303 304 306 306 302 297 297 297 295 294 293 293 285 297 299 300 300 295 302 314 309 301 289 285 294 293 310 297 290 288 269 264 262 249 250 247
314 308 304 304 304 304 301 298 299 306 306 303 301 291 289 283 295 297 295 293 296 319 316 327 285 295 318 313 292 302 294 301 282 276 257 252 251 249
314 311 310 310 309 305 306 306 304 301 297 297 282 272 275 277 281 284 293 290 292 312 310 330 337 331 318 302 334 313 329 331 324 281 262 256 253 256
314 315 317 317 315 318 326 329 331 328 319 315 306 299 290 288 279 277 265 288 300 311 305 317 338 340 324 223 8 334 325 316 319 293 275 268 263 262
319 320 323 326 334 330 329 328 332 328 321 319 310 297 289 293 283 263 252 266 299 313 317 323 328 349 348 167 5 349 328 323 321 308 269 244 243 224
330 333 348 350 340 336 330 330 331 335 336 329 332 335 305 286 62 192 226 291 297 326 342 330 333 350 344 358 352 343 338 333 341 358 106 134 127 126
347 352 351 349 350 347 341 339 337 335 331 337 354 2 7 317 292 275 275 289 269 286 318 321 318 333 333 337 357 338 334 2 63 71 106 107 119 117
348 346 342 340 347 353 351 347 348 343 352 27 41 49 50 43 270 265 274 251 252 293 295 298 304 311 311 319 14 341 354 73 113 115 108 109 105 98
351 346 343 348 353 1 358 355 352 4 43 57 45 18 5 341 358 35 83 111 8 330 321 314 309 36 324 294 116 15 76 92 118 115 112 111 110 108
359 360 0 3 4 4 5 7 12 15 33 46 25 12 6 73 57 77 61 37 64 64 58 35 38 114 116 123 150 140 170 114 113 112 114 110 106 105
1 5 9 13 12 12 14 25 17 29 56 47 27 16 74 67 80 60 66 66 88 89 69 74 61 90 102 105 103 109 113 112 111 110 113 108 99 96
15 15 17 18 17 21 25 47 41 45 44 36 27 61 75 73 65 79 62 105 80 81 88 95 95 93 94 91 90 94 96 100 103 103 104 103 95 87
25 24 24 25 30 35 39 39 41 37 42 71 81 74 84 70 75 58 85 101 78 94 91 103 101 91 85 84 83 75 80 83 86 88 91 89 86 81
29 33 40 43 42 45 42 42 50 70 82 70 70 94 79 70 64 66 87 74 96 106 89 102 95 95 95 92 83 80 70 70 70 70 70 78 82 80
39 45 46 49 46 50 65 58 58 70 76 66 64 97 83 70 64 91 80 94 100 110 98 82 105 102 99 96 87 80 72 66 63 76 72 69 79 76
52 51 53 51 62 63 63 70 62 59 72 64 70 94 83 70 95 103 94 97 96 91 98 105 108 117 104 88 81 73 70 71 81 82 77 78 88 81
51 55 57 59 59 58 56 48 46 57 68 80 79 79 87 91 97 90 113 89 95 100 98 100 103 100 96 89 78 77 82 83 85 85 80 77 77 80